Location: Bangs
(47.2667°N, 9.5331°E)
Time: 00:13:33
(UTC+00:00)

Daily predictions for brighter satellites

Satellite Brightness Start Highest point End
(mag) Time Altitude Azimuth Time Altitude Azimuth Time Altitude Azimuth
ATLAS 3B R/B 4.5 01:38:53 24° NNE 01:38:53 24° NNE 01:41:45 10° NNE
Cosmos 2082 Rocket 4.4 02:08:03 19° E 02:08:03 19° E 02:11:24 10° ENE
Cosmos 1980 Rocket 4.1 02:14:46 25° E 02:14:46 25° E 02:17:56 10° ESE
Cosmos 1833 Rocket 4.1 02:32:37 34° ENE 02:32:37 34° ENE 02:36:03 10° NE
BREEZE-M DEB (TANK) 4.3 02:45:51 67° ESE 02:45:51 67° ESE 02:58:54 10° ESE
CZ-2C R/B 3.9 02:45:07 10° NNE 02:48:28 33° ENE 02:48:28 33° ENE
Lacrosse 5 3.6 02:57:41 26° NNE 02:57:41 26° NNE 03:00:48 10° NE
IDEFIX/ARIANE 42P 4.5 02:58:36 10° N 03:00:22 21° N 03:00:22 21° N
ALOS 4.0 03:03:09 10° NNE 03:07:16 30° E 03:08:41 25° SE
NOSS 3-1 (C) 3.4 03:19:38 65° N 03:19:38 65° N 03:25:28 10° NE
PAYLOAD A 4.3 03:15:40 10° NNE 03:19:58 63° NNE 03:19:58 63° NNE
Cosmos 2278 3.7 03:21:44 60° N 03:22:46 78° ENE 03:28:29 10° SSE
ATLAS 3B R/B 4.3 03:26:07 18° NNW 03:28:06 20° N 03:33:04 10° NE
X-37B 3.5 03:31:20 16° E 03:31:20 16° E 03:32:07 10° E
BREEZE-M DEB (TANK) 4.1 03:29:32 48° SSE 03:29:48 48° SSE 03:33:06 10° E
USA 267 4.2 03:24:32 10° ENE 03:30:28 38° N 03:32:33 31° NW
COSMOS 2406 3.6 03:31:37 52° NNW 03:31:37 52° NNW 03:36:34 10° NNE
Cosmos 1932 4.3 03:32:30 45° NW 03:34:36 89° SW 03:40:48 10° SE
Cosmos 1869 4.2 03:38:25 45° ESE 03:38:40 46° E 03:42:30 10° NNE
NOSS 2-3 (C) 4.1 03:40:02 52° N 03:40:02 52° N 03:44:13 10° NE
Genesis I 4.1 03:40:11 46° E 03:40:11 46° E 03:43:20 10° NE
Cosmos 2360 Rocket 4.5 03:36:29 10° N 03:40:50 22° NE 03:45:11 10° E
H-2A R/B 2.5 03:37:06 10° SSE 03:41:22 59° ENE 03:45:35 10° N
SeaSat 1 2.4 03:36:54 10° SSE 03:41:24 73° S 03:41:24 73° S
Meteor 2-8 Rocket 4.3 03:43:35 55° SW 03:44:53 72° W 03:51:02 10° N
ARIANE 5 R/B 4.2 03:42:10 10° N 03:43:59 19° NNW 03:43:59 19° NNW
FENGYUN 3A 3.7 03:43:05 10° NNE 03:48:34 76° ESE 03:52:12 22° S
ISS -2.2 03:50:13 33° ESE 03:50:13 33° ESE 03:52:37 10° ENE
Cosmos 2082 Rocket 2.1 03:49:55 59° SW 03:50:59 75° WNW 03:56:44 10° NNE
SL-08 R/B 4.5 03:46:03 10° N 03:52:19 81° E 03:58:27 10° S
USA 229 DEB 3.7 03:54:21 48° W 03:56:00 62° NW 04:02:53 10° NE
USA 229 3.6 03:54:26 48° W 03:56:06 63° NW 04:02:59 10° NE
Cosmos 1980 Rocket 2.2 03:56:42 53° W 03:57:20 56° WSW 04:02:52 10° S
Meteor 2-3 Rocket 3.7 03:51:47 10° NNW 03:57:23 61° W 04:03:02 10° S
Cosmos 1244 Rocket 4.4 03:55:40 10° NNW 04:01:46 65° W 04:07:53 10° S
Iridium 4 Rocket 3.3 04:03:36 27° SSW 04:06:26 67° W 04:11:14 10° N
Cosmos 2322 Rocket 3.2 04:01:17 10° NNW 04:06:45 47° NE 04:12:11 10° SE
ATLAS CENTAUR R/B 2.0 04:04:52 27° NNW 04:06:49 52° NE 04:10:56 10° SE
CZ-4B R/B 2.9 04:04:50 10° SE 04:07:49 35° ENE 04:10:45 10° N
METEOR-M 4.1 04:05:36 10° NNE 04:10:59 87° ESE 04:16:20 10° SSW
NOSS 3-1 (A) 3.5 04:10:50 41° W 04:12:32 54° NW 04:18:57 10° NE
ADEOS 3.9 04:07:39 10° NNE 04:12:52 66° ESE 04:18:03 10° S
Cosmos 1833 Rocket 3.5 04:14:19 31° WNW 04:14:47 31° NW 04:19:47 10° NNE
Cosmos 1110 Rocket 3.9 04:09:42 10° NNW 04:14:58 66° WSW 04:20:09 10° S
COSMO-SKYMED 1 3.0 04:13:08 10° SSE 04:17:24 63° ENE 04:21:43 10° N
Meteor 2-15 Rocket 4.3 04:12:10 10° SSW 04:18:18 72° W 04:24:29 10° N
CENTAUR R/B 4.4 04:12:18 10° NW 04:19:17 36° NNE 04:27:04 10° E
CSL-04 DEB 4.4 04:19:16 10° SSE 04:23:20 80° ENE 04:27:22 10° NNW
Cosmos 1862 3.6 04:20:16 10° N 04:24:21 70° E 04:28:22 10° SSE
Cosmos 1743 Rocket 4.2 04:20:20 10° N 04:24:46 59° ENE 04:29:11 10° SSE
SL-16 R/B 2.3 04:20:58 10° NNW 04:26:41 79° ENE 04:32:21 10° SSE
CZ-2C R/B 3.3 04:23:37 10° N 04:27:49 28° WNW 04:27:51 28° WNW
CREW DRAGON DEMO-1 DEB 3.1 04:28:39 47° S 04:28:39 47° S 04:31:05 10° SE
Meteor 1-31 Rocket 2.7 04:25:36 10° NNE 04:29:33 87° ESE 04:33:26 10° SSW
ERS-2 3.9 04:26:26 10° SE 04:29:43 33° ENE 04:33:01 10° N
Cosmos 1386 Rocket 4.5 04:25:06 10° NNW 04:31:32 77° W 04:37:54 10° S
Cosmos 1553 Rocket 4.0 04:25:19 10° SSW 04:31:38 61° WNW 04:37:55 10° N
Meteor 1-4 Rocket 3.4 04:28:09 10° S 04:31:47 52° E 04:35:25 10° NNE
PSLV R/B 4.5 04:28:29 10° N 04:32:10 29° WNW 04:32:10 29° WNW
Cosmos 2219 Rocket 4.5 04:28:00 10° N 04:32:18 22° NE 04:36:35 10° E
Cosmos 1417 Rocket 4.4 04:26:52 10° SSW 04:33:02 68° W 04:39:20 10° N
Cosmos 1766 Rocket 4.2 04:30:51 10° NNW 04:34:51 32° W 04:38:49 10° SSW
Cosmos 1048 Rocket 4.4 04:33:43 29° WSW 04:35:32 39° WNW 04:40:23 10° N
NOSS 2-2 (D) 3.8 04:34:43 13° SSW 04:37:39 50° ESE 04:41:16 10° NE
Cosmos 494 Rocket 4.2 04:36:53 22° SW 04:40:00 49° WNW 04:45:02 10° NNE
Cosmos 1606 4.2 04:36:34 10° SSE 04:40:13 40° E 04:43:53 10° NNE
Lacrosse 5 3.3 04:36:53 14° NW 04:40:28 29° N 04:44:54 10° ENE
SKYMED 3 4.4 04:37:05 10° S 04:41:25 75° WSW 04:45:47 10° NNW
CZ-4B R/B 3.6 04:38:13 10° N 04:42:07 67° WNW 04:45:50 10° SSW
ALOS 2.9 04:40:28 10° N 04:44:41 34° WNW 04:47:11 20° WSW
Lacrosse 4 Rocket 3.7 04:41:06 10° NNW 04:44:51 25° NE 04:48:33 10° E
Cosmos 1269 Rocket 4.0 04:43:56 10° SSW 04:49:13 86° WNW 04:54:34 10° NNE
PSLV R/B 4.4 04:46:30 10° SSE 04:50:40 64° ENE 04:54:50 10° N
Cosmos 1408 Rocket 4.0 04:48:15 10° NNW 04:52:25 39° W 04:56:32 10° SSW
Cosmos 1484 Rocket 3.8 04:52:31 10° NNW 04:55:36 24° WNW 04:56:28 22° W
deb Chang Zheng 4 3.6 04:53:56 10° NNE 04:58:13 81° ESE 05:02:28 10° SSW
Cosmos 389 Rocket 4.4 04:59:23 14° NW 04:59:23 14° NW 05:00:29 10° NNW
Cosmos 1689 Rocket 2.8 04:56:53 10° SSE 04:59:38 53° ENE 05:02:25 10° N
MOS 1 Rocket 3.3 04:58:46 10° S 05:02:52 46° W 05:07:05 10° NNW
Cosmos 1500 Rocket 3.6 05:00:25 10° NNW 05:04:39 53° W 05:08:52 10° S
X-37B 1.1 05:03:37 20° WSW 05:05:28 48° SSW 05:08:32 10° ESE
SKYMED 2 3.9 05:01:23 10° S 05:05:30 42° W 05:09:39 10° NNW
H-2A R/B 2.7 05:05:24 10° N 05:09:18 77° WNW 05:13:12 10° SSW
Cosmos 1842 Rocket 4.1 05:06:09 10° SW 05:10:12 36° WNW 05:14:16 10° N
Cosmos 2333 Rocket 3.5 05:06:59 10° NNW 05:12:27 42° NE 05:17:53 10° SE
Cosmos 2221 3.1 05:08:29 10° SW 05:12:31 36° WNW 05:16:35 10° N
USA 267 4.0 05:06:31 10° E 05:12:41 46° NNE 05:18:52 10° NW
Sich 1 3.3 05:08:33 10° N 05:13:02 76° E 05:17:27 10° SSE
H-2A R/B 4.4 05:04:35 10° WSW 05:14:39 22° SSW 05:18:32 10° SSE
S3M 4.3 05:09:04 10° SW 05:14:47 41° WNW 05:20:35 10° N
SJ-7 4.4 05:13:12 10° NNE 05:17:13 83° ESE 05:21:12 10° SSW
H-2A R/B 3.6 05:15:05 10° SW 05:17:41 15° W 05:20:16 10° NW
SeaSat 1 4.2 05:18:07 10° SW 05:20:02 12° W 05:21:16 11° W
YAOGAN 6 2.5 05:16:32 10° N 05:20:07 82° WNW 05:23:38 10° SSW
ATLAS 3B R/B 4.4 05:15:55 10° NNW 05:21:20 24° NNE 05:26:54 10° ENE
Meteor PRIRODA 3.8 05:18:20 10° N 05:21:57 51° WNW 05:25:32 10° SSW
NOSS 3-2 (A) 4.3 05:17:14 10° NW 05:24:39 73° NE 05:33:07 10° SE
Cosmos 2360 Rocket 2.2 05:19:51 10° NNW 05:25:33 82° WSW 05:31:14 10° SSE
NOSS 2-2 (C) 3.2 05:22:47 10° SW 05:26:12 53° NW 05:30:02 10° NNE
ISS -3.4 05:23:11 12° W 05:26:13 53° NNW 05:29:32 10° ENE
Cosmos 1992 Rocket 4.0 05:21:21 10° NNW 05:26:35 80° WSW 05:31:47 10° SSE
Envisat 3.0 05:22:42 10° NNE 05:27:48 79° WNW 05:32:52 10° SSW
Cosmos 1633 Rocket 3.8 05:25:26 10° N 05:29:49 58° ENE 05:34:09 10° SSE
COSMOS 2487 4.2 05:30:43 10° S 05:33:54 38° ESE 05:37:06 10° NE
Cosmos 1709 Rocket 4.4 05:29:52 10° NNW 05:35:48 43° W 05:41:45 10° SSW
Cosmos 2082 Rocket 3.8 05:32:19 10° W 05:36:06 18° NW 05:39:53 10° N
Cosmos 2251 Rocket 3.9 05:32:01 10° SSW 05:37:19 72° ESE 05:42:41 10° NNE
COSMOS 2428 3.7 05:35:27 10° NNW 05:41:01 49° NE 05:46:32 10° SE
